Home > Weather > Maracay > Past weeks

Flag for Venezuela Weather for the Past 2 Weeks in Maracay, Venezuela

Now
91 °F

Passing clouds.


Feels Like: 97 °F
Forecast: 64 / 93 °F
Wind: N/A

Location: Valencia Airport

Current Time: Feb 11, 2016 at 12:55:01 PM

Latest Report: Feb 11, 2016 at 12:30 PM


Visibility: N/A

Pressure: 30.01 "Hg

Humidity: 49%

Dew point: 70 °F

Location of MaracayLocation

Historic Weather in Maracay — Graph

°F

Maracay Temperature Yesterday

Maximum temperature yesterday: 97 °F (at 2:30 PM)
Minimum temperature yesterday: 73 °F (at 4:30 AM)
Average temperature yesterday: 85 °F

High & Low Weather Summary for the Past Weeks

 TemperatureHumidityPressure
High99 °F (Feb 8, 2:30 PM)89% (Feb 8, 6:30 AM)30.09 "Hg (Feb 8, 6:30 AM)
Low72 °F (Jan 30, 6:30 AM)34% (Feb 10, 2:30 PM)29.83 "Hg (Feb 3, 4:30 PM)
Average83 °F63%29.96 "Hg
* Reported Jan 27 11:30 AM — Feb 11 11:30 AM, Maracay, Weather by CustomWeather, © 2016

Note: Actual official high and low records may vary slightly from our data, if they occured in-between our weather recording intervals... More about our weather records

Advertising

Maracay Weather History for the Previous 24 Hours

 ConditionsComfort  
Time TempWeatherWind HumidityBarometerVisibility
11:30 AM
Thu, Feb 11
88 °FPassing clouds.N/A52%30.04 "HgN/A
10:30 AM86 °FPassing clouds.N/A55%30.09 "HgN/A
9:30 AM81 °FSunny.N/A62%30.09 "Hg10 mi
8:30 AM79 °FSunny.N/A65%30.09 "Hg10 mi
7:30 AM73 °FSunny.N/A74%30.07 "Hg10 mi
6:30 AM73 °FSunny.N/A74%30.04 "Hg10 mi
5:30 AM75 °FClear.N/A74%29.98 "Hg10 mi
10:30 PM
Wed, Feb 10
81 °FClear.N/A62%30.01 "Hg10 mi
9:30 PM82 °FClear.N/A58%29.98 "Hg10 mi
8:30 PM84 °FClear.N/A55%29.95 "Hg10 mi
7:30 PM84 °FClear.N/A55%29.95 "Hg10 mi
6:30 PM90 °FPassing clouds.N/A41%29.92 "HgN/A
5:30 PM86 °FPassing clouds.N/A46%29.92 "HgN/A
4:30 PM95 °FPassing clouds.N/A36%29.92 "HgN/A
3:30 PM97 °FPassing clouds.N/A37%29.92 "HgN/A
2:30 PM97 °FPassing clouds.N/A34%29.92 "HgN/A
1:30 PM95 °FPassing clouds.N/A41%29.95 "HgN/A
12:30 PM93 °FPassing clouds.N/A41%30.01 "HgN/A
Weather by CustomWeather, © 2016

See weather overviewHow to use our weather pages